Weather History for KHLN - July, 2014

Change the Weather History Date:

Sunday, July 20, 2014

  Actual Average Record
Temperature  
Mean Temperature 76 °F 71 °F  
Max Temperature 93 °F 87 °F 103 °F (2003)
Min Temperature 59 °F 55 °F 43 °F (1898)
Degree Days  
Heating Degree Days 0 1  
Month to date heating degree days 0 25  
Since 1 June heating degree days 127 161  
Since 1 July heating degree days 0 25  
Cooling Degree Days 11 7  
Month to date cooling degree days 170 108  
Year to date cooling degree days 177 165  
Since 1 June cooling degree days 173 157  
Growing Degree Days 25 (Base 50)    
Moisture  
Dew Point 43 °F    
Average Humidity 38    
Maximum Humidity 64    
Minimum Humidity 12    
Precipitation  
Precipitation 0.00 in 0.04 in 0.97 in (1881)
Month to date precipitation 0.47 0.81  
Year to date precipitation 6.66 6.97  
Snow  
Snow 0.00 in 0.00 in T in (1993)
Month to date snowfall 0.0 0.0  
Since 1 June snowfall 0.0 T  
Since 1 July snowfall 0.0 0.0  
Snow Depth 0.00 in    
Sea Level Pressure  
Sea Level Pressure 29.77 in    
Wind  
Wind Speed 10 mph (WNW)    
Max Wind Speed 23 mph    
Max Gust Speed 30 mph    
Visibility 10 miles    
Events      
T = Trace of Precipitation, MM = Missing Value Source: NWS Daily Summary

Daily Weather History Graph

Daily Weather History Graph

Search for Another Location

Airport or City:

Trip Planner

Search our weather history database for the weather conditions in past years. The results will help you decide how hot, cold, wet, or windy it might be!

Date:

Astronomy

Jul. 20, 2014 Rise Set
Actual Time 5:54 AM MDT 9:13 PM MDT
Civil Twilight 5:17 AM MDT 9:49 PM MDT
Nautical Twilight 4:29 AM MDT 10:37 PM MDT
Astronomical Twilight 3:28 AM MDT 11:38 PM MDT
Moon 1:16 AM MDT (7/20) 3:54 PM MDT (7/20)
Length of Visible Light 16h 32m
Length of Day
15h 18m
Waning Crescent, 33% of the Moon is Illuminated
Jul 20
Waning Crescent
Jul 26
New
Aug 3
First Quarter
Aug 10
Full
Aug 17
Last Quarter

Hourly Weather History & Observations

Time (MDT) Temp. Dew Point Humidity Pressure Visibility Wind Dir Wind Speed Gust Speed Precip Events Conditions
12:53 AM 69.1 °F 46.0 °F 44% 29.81 in 10.0 mi West 8.1 mph - N/A   Clear
1:53 AM 66.9 °F 46.0 °F 47% 29.82 in 10.0 mi East 3.5 mph - N/A   Clear
2:53 AM 68.0 °F 45.0 °F 43% 29.81 in 10.0 mi Calm Calm - N/A   Clear
3:53 AM 64.9 °F 46.0 °F 50% 29.79 in 10.0 mi WSW 3.5 mph - N/A   Clear
4:53 AM 64.9 °F 46.0 °F 50% 29.81 in 10.0 mi SE 4.6 mph - N/A   Clear
5:53 AM 64.0 °F 46.0 °F 52% 29.83 in 10.0 mi Calm Calm - N/A   Clear
6:53 AM 61.0 °F 48.0 °F 62% 29.83 in 10.0 mi Calm Calm - N/A   Clear
7:53 AM 69.1 °F 48.0 °F 47% 29.82 in 10.0 mi ENE 4.6 mph - N/A   Clear
8:53 AM 71.1 °F 48.9 °F 45% 29.83 in 10.0 mi North 3.5 mph - N/A   Clear
9:53 AM 81.0 °F 41.0 °F 24% 29.81 in 10.0 mi WNW 12.7 mph 21.9 mph N/A   Clear
10:53 AM 82.0 °F 39.9 °F 22% 29.80 in 10.0 mi WNW 16.1 mph 24.2 mph N/A   Clear
11:53 AM 84.9 °F 41.0 °F 21% 29.78 in 10.0 mi NW 17.3 mph 24.2 mph N/A   Clear
12:53 PM 87.1 °F 41.0 °F 20% 29.76 in 10.0 mi West 19.6 mph 26.5 mph N/A   Clear
1:53 PM 88.0 °F 41.0 °F 19% 29.75 in 10.0 mi West 16.1 mph 25.3 mph N/A   Scattered Clouds
2:53 PM 89.1 °F 42.1 °F 19% 29.73 in 10.0 mi NW 13.8 mph 19.6 mph N/A   Clear
3:53 PM 90.0 °F 42.1 °F 19% 29.72 in 10.0 mi NW 17.3 mph 23.0 mph N/A   Clear
4:53 PM 91.0 °F 35.1 °F 14% 29.70 in 10.0 mi WNW 16.1 mph 24.2 mph N/A   Clear
5:53 PM 91.9 °F 32.0 °F 12% 29.68 in 10.0 mi WNW 18.4 mph 26.5 mph N/A   Clear
6:53 PM 91.0 °F 32.0 °F 12% 29.69 in 10.0 mi WNW 16.1 mph - N/A   Clear
7:53 PM 87.1 °F 37.9 °F 18% 29.69 in 10.0 mi NNW 12.7 mph - N/A   Clear
8:53 PM 79.0 °F 43.0 °F 28% 29.72 in 10.0 mi Calm Calm - N/A   Clear
9:53 PM 75.9 °F 43.0 °F 31% 29.74 in 10.0 mi NW 8.1 mph - N/A   Clear
10:53 PM 71.1 °F 48.0 °F 44% 29.76 in 10.0 mi West 11.5 mph - N/A   Clear
11:53 PM 70.0 °F 48.0 °F 46% 29.78 in 10.0 mi West 10.4 mph - N/A   Clear